{"data":{"norad_id":65226,"intl_designator":"2025-177A","name":"SHIYAN-28B 02","alt_names":[],"object_type":"PAYLOAD","status":"ACTIVE","operator":null,"country":"PRC","launch_date":"2025-08-17","launch_site_code":"XICLF","launch_vehicle":null,"mission":null,"orbit_class":"UNKNOWN","rcs_meters":null,"size_class":null,"mass_kg":null,"dimensions":null,"purposes":[],"wikipedia_slug":null,"has_3d_model":false,"image_url":null,"decayed_at":null,"tle_current":{"epoch":"2026-05-25T05:02:27.502656Z","epoch_age_seconds":53730,"freshness":"FRESH","line1":"1 65226U 25177A   26145.21004054  .00000584  00000+0  58930-4 0  9992","line2":"2 65226  10.9997  83.5121 0003356   6.7906 353.2367 14.29391201 40244","mean_motion":14.29391201,"eccentricity":0.0003356,"inclination_deg":10.9997,"raan_deg":83.5121,"arg_perigee_deg":6.7906,"mean_anomaly_deg":353.2367,"bstar":5.893e-5,"rev_number":4024,"period_min":100.74219003115,"perigee_km":791.35962642289,"apogee_km":796.17340806367,"semimajor_km":7171.9035172433,"source":"CELESTRAK","updated_at":"2026-05-25T13:38:05.251926Z"}}}